Location: Anciles
(42.5833°N, 0.5167°E)
Time: 18:55:26
(UTC+00:00)

CSL-04 Debris - Visible Passes

Search period start: 10 April 2020 00:00
Search period end: 20 April 2020 00:00
Orbit: 826 x 849 km, 99.0° (Epoch: 10 April)

Date Brightness Start Highest point End Pass type
(mag) Time Alt. Az. Time Alt. Az. Time Alt. Az.
10 Apr 6.9 20:08:14 10° SW 20:11:34 16° W 20:14:55 10° NW visible
11 Apr 6.6 19:51:34 10° SW 19:55:46 23° W 20:00:00 10° NW visible
12 Apr 6.1 19:35:14 10° SSW 19:40:01 31° W 19:44:48 10° NW visible
13 Apr 5.6 19:19:09 10° S 19:24:18 42° W 19:29:27 10° NNW visible
14 Apr 4.9 19:03:14 10° S 19:08:37 58° WSW 19:13:59 10° NNW visible
16 Apr 7.0 20:15:30 10° WSW 20:18:19 14° W 20:21:09 10° WNW visible
17 Apr 6.8 19:58:37 10° SW 20:02:30 20° W 20:06:25 10° NW visible
18 Apr 6.3 19:42:10 10° SSW 19:46:44 27° W 19:51:18 10° NW visible
19 Apr 5.8 19:26:00 10° SSW 19:31:00 37° W 19:36:00 10° NNW visible
